Vertical_Velocity
-1 -1 0 4 -1 -1 -2 1 0 -2 -3 -3 -1 2 -1 -1 1 -3 -0 0 2 -4 -0 3 1 -2 -2 -3 -3 -3 1 -1 -0 -3 4 1 -5 -3 -0 2 2 -0 2
5 -2 1 3 -2 -5 3 -3 -4 -4 1 -1 0 -2 0 -0 -0 -2 -1 1 -2 -0 -3 4 2 -1 -2 -4 -5 -2 -2 -3 -0 -1 0 -1 -2 -0 0 -0 3 -1 1
5 1 -3 4 1 -6 1 -3 2 5 -1 -3 -0 1 2 -1 -0 2 -1 -1 -3 -0 -1 1 -4 0 -1 -0 -3 -2 0 0 2 4 1 1 -11 0 3 0 3 -1 -0
4 4 -1 -2 3 4 -6 7 -1 0 -3 1 4 3 1 -2 -1 -1 -0 -3 -3 0 -3 -3 -2 -5 -5 5 1 1 1 3 0 -1 -4 2 -9 2 -2 -1 1 2 -2
6 8 7 2 -1 3 -1 -2 6 5 4 -1 -5 1 -3 -0 -0 1 -0 1 1 -2 -4 -3 -0 1 -5 -3 -3 -3 -1 -1 3 -2 -4 -2 -0 1 1 -1 1 2 -2
7 -2 -23 3 -1 1 2 -1 7 -3 -1 0 2 4 -1 1 0 6 3 0 0 -4 2 -4 -1 -1 3 1 2 -1 -2 -0 -1 -0 2 -2 -1 -1 -0 -2 -3 -2 -1
8 1 14 6 14 1 3 -1 -2 -1 0 0 4 2 1 2 0 0 -1 2 -1 -0 1 -1 1 2 -2 0 1 3 -7 1 2 0 4 -2 1 -3 -0 0 -0 -4 -2
11 11 -8 -0 -8 -3 -1 -9 -3 -3 0 -2 3 -2 1 -0 -4 6 -5 1 0 -7 -2 3 -0 3 -2 -4 3 -4 -0 -2 -1 -3 6 -7 -2 -2 -1 1 -1 1 -4
-29 26 20 -14 6 2 -4 4 -1 3 1 2 5 -1 -4 -0 8 -5 3 0 -1 3 -4 1 -1 0 -1 2 -4 -2 -3 -2 2 -3 4 -1 -1 -0 -3 -2 -0 0 1
120 4 -5 3 -2 -2 -1 -0 1 2 2 1 -6 -3 11 2 -3 1 3 -2 1 -4 -2 -2 2 1 -4 -5 2 0 -3 -6 -1 4 -9 -0 1 -1 1 -3 -6 -1 -1
12 -4 0 -0 -3 3 -7 2 3 -0 -1 -2 1 3 -5 -1 0 0 -4 2 -1 -2 -3 -3 2 -3 1 -6 -6 -1 -3 -2 3 2 -8 -0 0 -2 -1 -1 1 -4 -4
-0 2 0 -2 -0 -1 1 -3 -4 5 1 3 0 1 -5 -1 1 -1 -2 1 2 -1 0 -3 1 5 -3 2 0 1 -1 1 3 4 -12 -3 -2 1 1 1 -0 -0 -1
1 -2 -5 -2 -1 -6 -1 2 1 3 -2 5 3 0 -2 1 -0 -1 -5 -2 -4 -4 3 -4 -3 7 3 -0 -1 -2 -1 3 -1 4 -15 -0 -1 -2 -1 -0 2 -1 -1
-4 -6 -5 -4 -4 7 3 -2 -6 2 8 -4 -6 -4 1 -3 3 -2 1 6 -3 -0 -2 -1 3 -1 -4 -1 -5 -2 -5 -3 -1 5 -16 -1 -1 -1 -2 1 -2 2 1
-4 -5 -1 1 -2 -1 1 -3 -0 -5 -6 -6 -2 -1 -8 -3 1 3 -4 -0 -10 2 0 -5 0 1 3 0 -1 -8 -3 -3 -3 -3 4 -3 -3 0 -2 -3 -2 -2 -0
-5 -4 -2 -3 1 3 -2 -1 -0 0 -4 -10 -4 -2 1 -4 -4 1 -2 -1 6 -2 3 -1 -0 -2 2 -2 0 -2 -6 -7 -2 -4 2 -3 -4 -4 -2 -2 -1 -2 -2
-3 -5 1 3 7 1 1 8 10 1 -30 8 5 5 5 8 5 -4 -4 4 1 -9 -4 2 -3 -3 -2 -6 -3 -1 -2 1 -0 -2 -1 -1 -6 -3 -0 -7 -2 2 0
-2 1 -2 3 2 -2 5 0 -54 6 -2 -3 4 -0 0 -5 -7 -1 -1 -3 3 3 -2 -2 -5 -3 2 0 1 1 -1 -2 -1 -2 -1 2 3 -3 -1 -0 -4 -5 -1
0 0 4 3 -3 2 -5 -1 3 1 -4 -4 -2 -2 -2 -0 0 -3 -3 -3 -1 -3 -3 -2 1 2 -3 -1 2 -5 1 -1 -0 -0 -0 2 3 3 -2 -4 -3 -2 -2
-1 0 4 1 2 -4 1 -2 -3 -3 -3 -3 -3 -1 -5 -1 -2 1 -10 -1 2 -1 0 1 -3 0 -1 -3 -4 -4 -1 -1 -0 -3 -1 -1 2 -0 0 -3 -1 3 0
0 1 3 -1 -1 1 -2 -5 -1 -3 -1 -0 -2 -4 -4 -4 -6 1 0 -0 -6 -3 -1 -3 -5 -3 2 -2 -6 -2 -3 0 -1 2 4 4 -1 2 0 2 2 -5 -2
2 2 1 -0 -1 -2 -2 -2 -0 0 -1 -3 -6 -6 -3 -2 -3 -0 -6 -0 -1 -0 0 -1 -2 -6 -0 -1 -0 -5 -11 0 4 -4 -0 1 3 -2 -2 -2 -5 -2 -3
3 3 -0 -1 -0 -1 -2 -0 -0 -1 -2 2 -9 -7 -8 -5 3 -0 -1 -2 -1 -2 -1 -1 -1 -4 1 -3 -1 -3 -4 0 -4 -1 -2 -1 1 5 4 0 -3 -1 -3
1 -1 -0 -2 -2 -1 -0 -1 -4 -4 -1 -2 -0 -1 2 -2 -4 -3 -2 -2 -1 -2 -3 -4 -1 -7 -3 -1 -4 -0 2 -2 -4 -10 1 -6 -4 -4 -5 -7 -7 -10 -4
-3 -3 -2 -1 -1 -1 -3 -2 -3 -3 -2 -3 -2 -3 -4 -2 -1 -3 -4 -5 -5 -4 -4 -4 -6 -2 0 -2 -1 -1 -5 -2 -1 -11 -12 -5 -3 3 -1 -2 2 -7 -3
-2 -2 0 -2 -2 -3 -1 -1 -3 -1 2 -6 0 -3 -0 -2 -4 -6 -4 -5 -3 -4 -4 -3 -4 -4 -2 -2 2 2 -6 -4 -6 -5 -9 -5 -6 -3 5 -4 -5 -2 -3
Height
3154 3156 3159 3160 3162 3165 3167 3170 3172 3172 3173 3174 3175 3174 3174 3173 3172 3172 3172 3170 3169 3169 3167 3167 3166 3166 3165 3164 3162 3161 3160 3159 3158 3157 3157 3156 3156 3157 3157 3158 3157 3156 3156
3153 3155 3159 3160 3162 3166 3167 3169 3171 3173 3173 3174 3174 3174 3174 3173 3172 3172 3172 3172 3171 3170 3168 3169 3167 3167 3167 3165 3164 3163 3162 3160 3159 3158 3157 3155 3154 3156 3157 3157 3157 3156 3155
3153 3155 3159 3161 3163 3166 3167 3169 3170 3172 3172 3174 3174 3174 3174 3173 3173 3173 3173 3173 3172 3171 3171 3171 3169 3168 3167 3166 3164 3163 3162 3160 3159 3159 3158 3159 3153 3155 3155 3154 3154 3154 3153
3153 3155 3159 3162 3163 3165 3167 3168 3170 3172 3173 3174 3174 3174 3174 3174 3173 3173 3173 3173 3173 3173 3172 3172 3170 3170 3169 3168 3166 3164 3162 3161 3159 3158 3156 3158 3152 3154 3153 3153 3153 3153 3152
3152 3152 3155 3160 3163 3164 3166 3168 3170 3171 3172 3172 3172 3173 3173 3173 3173 3174 3174 3174 3174 3174 3173 3172 3171 3170 3169 3168 3167 3165 3163 3162 3159 3157 3156 3156 3154 3153 3152 3151 3151 3151 3151
3150 3148 3148 3160 3162 3163 3164 3167 3170 3171 3171 3171 3172 3172 3173 3174 3174 3175 3175 3174 3174 3174 3172 3172 3171 3171 3169 3168 3166 3165 3164 3163 3160 3158 3155 3154 3152 3151 3151 3151 3149 3149 3149
3147 3145 3148 3157 3159 3163 3164 3166 3170 3170 3170 3170 3172 3172 3173 3174 3175 3175 3176 3175 3174 3174 3172 3172 3171 3170 3170 3169 3166 3165 3163 3162 3160 3158 3155 3153 3151 3150 3149 3148 3148 3147 3146
3141 3141 3150 3155 3159 3163 3164 3167 3168 3169 3170 3170 3171 3172 3174 3174 3176 3176 3176 3176 3174 3174 3174 3172 3171 3171 3169 3168 3166 3164 3162 3161 3159 3157 3155 3151 3150 3148 3147 3146 3146 3146 3144
3134 3143 3151 3159 3160 3162 3165 3167 3167 3168 3169 3170 3171 3173 3174 3175 3175 3176 3176 3175 3175 3173 3172 3172 3170 3169 3168 3167 3164 3162 3160 3159 3157 3156 3155 3151 3149 3148 3146 3144 3144 3143 3142
3137 3144 3155 3160 3160 3162 3164 3166 3166 3167 3168 3171 3172 3174 3174 3174 3174 3175 3176 3174 3173 3173 3172 3170 3169 3167 3165 3164 3163 3161 3159 3156 3155 3154 3151 3150 3148 3146 3144 3142 3141 3140 3139
3149 3152 3157 3159 3160 3161 3164 3166 3167 3169 3170 3170 3172 3173 3174 3174 3173 3173 3174 3174 3172 3171 3171 3170 3167 3165 3164 3161 3159 3159 3157 3155 3154 3151 3147 3148 3146 3143 3141 3139 3137 3137 3136
3153 3154 3156 3158 3160 3161 3164 3167 3168 3168 3169 3171 3172 3173 3174 3175 3174 3174 3174 3172 3171 3170 3169 3168 3165 3163 3161 3161 3158 3157 3155 3152 3150 3148 3144 3145 3143 3140 3138 3136 3134 3133 3131
3153 3155 3158 3161 3163 3164 3165 3166 3168 3170 3171 3173 3174 3175 3177 3176 3175 3175 3173 3171 3169 3168 3167 3164 3163 3161 3159 3157 3155 3153 3151 3149 3146 3144 3139 3139 3139 3136 3133 3131 3129 3128 3126
3157 3159 3161 3162 3163 3165 3166 3166 3168 3169 3171 3171 3173 3175 3174 3175 3174 3174 3172 3167 3166 3167 3164 3163 3161 3158 3155 3152 3148 3147 3145 3143 3141 3139 3134 3132 3131 3130 3128 3126 3123 3121 3121
3158 3160 3161 3163 3164 3165 3166 3166 3168 3168 3169 3172 3173 3171 3171 3171 3171 3169 3167 3164 3162 3162 3160 3159 3157 3154 3150 3147 3143 3140 3138 3136 3132 3130 3129 3125 3121 3122 3120 3119 3117 3115 3113
3159 3160 3161 3162 3164 3164 3166 3168 3169 3169 3171 3172 3171 3168 3166 3166 3165 3163 3161 3159 3158 3157 3156 3154 3151 3148 3146 3142 3138 3134 3131 3127 3124 3121 3120 3117 3113 3109 3109 3109 3109 3108 3106
3160 3161 3162 3164 3166 3166 3168 3168 3168 3169 3170 3166 3165 3162 3161 3160 3159 3159 3156 3153 3153 3152 3150 3147 3145 3142 3138 3133 3130 3126 3124 3121 3117 3113 3110 3107 3105 3100 3096 3093 3095 3098 3097
3161 3162 3164 3165 3166 3166 3166 3164 3162 3163 3162 3161 3160 3159 3159 3158 3156 3155 3152 3148 3147 3146 3144 3142 3139 3134 3132 3129 3123 3118 3116 3112 3109 3105 3103 3102 3099 3096 3091 3085 3081 3084 3085
3161 3162 3163 3164 3164 3164 3163 3162 3162 3161 3160 3159 3158 3158 3157 3156 3154 3151 3148 3146 3145 3142 3137 3134 3131 3128 3122 3118 3114 3109 3108 3105 3101 3098 3094 3093 3091 3086 3080 3077 3071 3071 3071
3161 3162 3163 3162 3162 3161 3161 3161 3160 3159 3157 3156 3156 3155 3154 3152 3150 3148 3144 3142 3140 3136 3131 3127 3122 3119 3114 3108 3103 3099 3098 3095 3092 3088 3085 3084 3081 3076 3072 3065 3062 3059 3054
3159 3160 3160 3160 3161 3160 3160 3159 3157 3156 3155 3154 3153 3152 3150 3148 3146 3144 3140 3136 3132 3129 3123 3118 3113 3109 3106 3102 3095 3090 3087 3087 3085 3084 3079 3074 3070 3067 3062 3057 3051 3047 3045
3156 3157 3157 3158 3158 3158 3157 3156 3156 3155 3153 3151 3150 3148 3146 3144 3140 3137 3133 3129 3124 3120 3116 3110 3105 3100 3097 3093 3088 3080 3076 3076 3076 3072 3068 3064 3063 3056 3052 3046 3041 3037 3034
3152 3154 3155 3156 3156 3156 3155 3154 3153 3151 3148 3146 3144 3141 3138 3138 3134 3130 3125 3120 3117 3112 3107 3102 3097 3091 3088 3084 3081 3075 3067 3063 3058 3058 3055 3052 3050 3047 3040 3036 3032 3028 3024
3149 3151 3152 3152 3152 3151 3150 3150 3148 3146 3144 3142 3140 3136 3134 3130 3126 3123 3118 3113 3109 3104 3099 3094 3090 3083 3079 3075 3070 3067 3062 3056 3049 3042 3044 3041 3038 3036 3033 3029 3024 3019 3017
3147 3147 3147 3148 3147 3146 3146 3145 3143 3141 3140 3137 3136 3133 3128 3123 3119 3114 3110 3105 3100 3095 3090 3085 3079 3076 3070 3065 3060 3055 3052 3048 3043 3039 3031 3032 3030 3028 3025 3021 3016 3012 3009
3143 3143 3143 3143 3143 3142 3141 3140 3138 3137 3134 3133 3128 3125 3120 3115 3111 3106 3102 3096 3091 3085 3081 3076 3070 3064 3058 3053 3050 3045 3041 3038 3035 3031 3027 3023 3020 3020 3017 3012 3010 3006 3003